GSAT 0205

Last updated on Sun May 29 2016 01:44:43 GMT+0000 (Coordinated Universal Time)

1 40889U 15045A 16147.45644932 -.00000039 00000-0 00000-0 0 9993 2 40889 57.2685 322.6347 0003762 22.4148 337.5963 1.70474691 4391

Satellite not in orbit

GSAT 0205